Location: Gerstheim
(48.3814°N, 7.7031°E)
Time: 08:27:02
(UTC+00:00)

Daily predictions for brighter satellites

Satellite Brightness Start Highest point End
(mag) Time Altitude Azimuth Time Altitude Azimuth Time Altitude Azimuth
Tiangong 2.5 20:12:47 10° WSW 20:15:23 23° S 20:17:59 10° SE
Cosmos 1975 Rocket 3.1 20:11:50 10° S 20:16:16 72° E 20:20:42 10° NNE
CARTOSAT-1 3.6 20:13:41 10° SSE 20:17:59 76° ENE 20:22:19 10° N
IRAS Rocket 4.3 20:14:23 10° NNE 20:19:59 65° ESE 20:25:30 10° S
Cosmos 1656 4.4 20:15:43 10° NNW 20:20:52 41° NE 20:26:03 10° ESE
Cosmos 2084 3.4 20:17:23 10° SSW 20:21:03 45° SE 20:24:46 10° NE
USA 276 2.6 20:26:10 10° SW 20:28:54 33° SSE 20:31:40 10° E
Spot 2 Rocket 3.7 20:26:09 10° SSE 20:31:09 60° ENE 20:36:11 10° N
ATLAS 2AS CENTAUR R/B 2.8 20:24:06 10° NW 20:31:19 86° NE 20:37:59 10° SE
Cosmos 1544 Rocket 3.6 20:29:04 10° N 20:33:23 67° ENE 20:37:42 10° SSE
Meteor 1-24 Rocket 3.6 20:28:29 10° S 20:33:46 76° E 20:39:13 10° NNE
MetOp-B 4.4 20:28:53 10° S 20:34:13 70° WSW 20:39:36 10° NNW
Lacrosse 5 1.9 20:30:47 10° NW 20:35:56 89° SW 20:40:57 10° SE
Cosmos 1371 Rocket 4.0 20:30:54 10° SSW 20:36:08 88° ESE 20:41:28 10° NNE
USA 234 4.0 20:30:25 10° E 20:36:43 51° NNE 20:43:01 10° NW
Cosmos 1452 Rocket 4.4 20:32:28 10° SSE 20:36:58 30° E 20:41:29 10° NE
X-37B 1.2 20:36:18 10° SW 20:38:49 29° SSE 20:41:20 10° ESE
Cosmos 1833 Rocket 4.0 20:36:07 10° SSE 20:40:10 21° E 20:44:14 10° NE
Terra 2.2 20:38:02 11° SE 20:42:31 51° ENE 20:47:08 10° N
FALCON 9 DEB 4.3 20:41:56 10° W 20:45:05 43° NNW 20:48:14 10° ENE
Cosmos 2184 Rocket 4.3 20:40:11 10° N 20:46:13 53° ENE 20:51:50 12° SSE
Resurs 01 Rocket 3.5 20:45:29 10° SSW 20:49:18 28° W 20:53:08 10° NW
Cosmos 724 4.3 20:46:21 10° SSW 20:52:01 58° ESE 20:57:42 10° NE
Helios 1A Rocket 2.9 20:51:31 12° SSE 20:55:19 89° WSW 20:59:27 10° NNW
CZ-4B R/B 3.4 20:53:05 10° NNW 20:55:32 25° WNW 20:57:57 10° SW
Cosmos 1624 Rocket 4.3 20:51:16 10° SSW 20:56:29 70° WNW 21:01:42 10° NNE
Lacrosse 5 rocket 2.2 20:55:25 10° WNW 20:58:58 35° SW 21:01:56 14° SSE
Cosmos 1271 Rocket 3.1 20:56:44 10° NNW 21:00:42 66° W 21:04:25 11° S
Cosmos 2082 Rocket 4.0 21:01:00 11° ESE 21:03:11 13° E 21:05:51 10° ENE
SPOT 3 Rocket 4.3 21:00:19 10° S 21:05:20 49° W 21:10:24 10° NNW
NOSS 2-1 (E) 4.2 21:01:25 10° NW 21:05:59 74° SW 21:11:18 15° SSE
ERS-1 Rocket 3.1 21:03:41 12° S 21:08:21 78° WSW 21:13:26 10° NNW
RESURS DK-1 2.8 21:06:03 10° NNW 21:10:07 52° ENE 21:13:07 17° SE
CZ-2C R/B 3.7 21:12:02 10° NNE 21:16:41 82° ESE 21:21:12 10° SSW
ARIANE 5 R/B 2.6 21:18:10 17° SSE 21:21:33 88° E 21:26:02 10° NNW
Cosmos 1741 Rocket 4.1 21:16:35 10° NNW 21:21:56 81° ENE 21:25:51 19° SSE
Cosmos 2344 4.4 21:18:59 10° NW 21:27:36 70° NE 21:38:57 12° SE
SL-8 R/B 3.6 21:23:53 10° W 21:28:42 81° SSW 21:33:28 10° ESE
GP-B 4.1 21:27:37 10° NNE 21:31:36 31° E 21:33:53 20° SE
Cosmos 1455 3.9 21:28:27 10° NNW 21:31:45 28° W 21:35:03 10° SSW
Cosmos 2074 Rocket 4.2 21:28:32 10° NNW 21:34:48 70° W 21:40:09 14° S
ASTEX 1 3.9 21:34:58 10° NNE 21:39:49 47° E 21:42:46 22° SSE
COSMOS 2406 3.9 21:37:53 20° SSE 21:41:13 37° ESE 21:46:27 10° NE
Cosmos 2369 4.3 21:38:22 10° NNW 21:43:58 51° NE 21:48:09 18° SE
TSX-5 4.5 21:39:37 10° SW 21:44:03 81° WNW 21:49:54 10° NNE
USA 267 3.2 21:38:03 10° ENE 21:44:35 67° SE 21:51:05 10° SW
SL-16 R/B 4.4 21:40:44 10° N 21:44:43 19° NE 21:48:40 10° E
Cosmos 1536 Rocket 4.5 21:43:37 10° SSW 21:47:46 46° WNW 21:51:59 10° N
Cosmos 2228 3.3 21:45:12 10° NNW 21:49:23 59° W 21:52:05 21° S
SPOT 5 4.3 21:46:34 10° SSW 21:50:17 26° W 21:53:56 10° NW
Tiangong 3.5 21:49:55 10° SW 21:50:37 12° SW 21:50:37 12° SW
Cosmos 1850 Rocket 4.4 21:46:55 10° NNW 21:52:02 56° WSW 21:55:21 21° S
Nadezhda 1 Rocket 3.9 21:47:09 15° S 21:52:21 87° W 21:58:28 10° N
Cosmos 1980 Rocket 2.7 21:47:00 10° NNW 21:52:36 52° NE 21:56:37 19° SE
Cosmos 1606 Rocket 3.5 21:50:09 10° NNW 21:54:29 82° W 21:56:56 25° S
Cosmos 1703 4.1 21:51:22 12° SSW 21:54:43 46° WNW 21:58:27 10° N
Cosmos 1697 Rocket 2.7 21:49:34 10° NNW 21:55:14 85° WSW 21:58:44 24° SSE
Cosmos 1892 3.6 21:55:58 26° SE 21:57:06 32° E 22:00:29 10° NNE
SJ 16-02 4.0 21:56:38 10° NNE 21:57:47 11° NE 21:58:55 10° ENE
Cosmos 2154 Rocket 4.3 21:53:27 10° NNW 21:59:37 64° W 22:04:14 18° S
Cosmos 2084 Rocket 3.8 21:56:25 10° NW 22:00:14 52° NE 22:02:44 21° ESE
Meteor 1-11 4.5 21:57:30 24° SSE 22:00:45 52° E 22:06:10 10° NNE
USA 276 2.1 22:01:28 10° W 22:04:28 74° N 22:07:28 10° ENE
Cosmos 1328 3.8 22:04:05 25° SSW 22:06:22 81° W 22:10:25 10° N
Cosmos 1331 Rocket 4.0 22:04:07 14° SSW 22:08:41 85° WNW 22:14:02 10° NNE
X-37B 1.6 22:11:19 10° WSW 22:12:57 27° SW 22:12:57 27° SW
Cosmos 1408 2.4 22:15:25 41° SSE 22:16:25 64° E 22:19:50 10° NNE
Lacrosse 5 3.5 22:14:35 10° WNW 22:18:21 21° SW 22:20:08 17° SSW
SAR-Lupe-4 4.1 22:15:27 10° N 22:18:58 55° WNW 22:21:00 23° SW
Cosmos 1726 Rocket 3.9 22:15:00 10° NNW 22:19:15 58° W 22:21:23 27° SSW
USA 234 3.2 22:14:24 18° SE 22:19:32 80° SW 22:26:08 10° NW
Terra 3.7 22:16:55 10° SW 22:20:32 22° W 22:24:14 10° NW
ATLAS 2AS CENTAUR R/B 4.2 22:16:07 10° WNW 22:21:21 23° WSW 22:25:25 13° SSW
Cosmos 1833 Rocket 2.9 22:17:56 10° SW 22:23:32 70° WNW 22:29:10 10° NNE
Cosmos 2322 Rocket 4.1 22:19:35 10° N 22:24:10 24° NE 22:28:43 10° E
Cosmos 1867 3.8 22:22:16 10° NW 22:27:45 69° NE 22:31:18 22° SE
Cosmos 2278 4.1 22:23:05 10° NNW 22:28:44 59° ENE 22:32:24 22° SE
ATLAS 5 CENTAUR R/B 3.1 22:30:25 17° ESE 22:30:25 17° ESE 22:32:30 10° ENE
SL-8 Rocket 4.0 22:23:52 10° N 22:30:10 89° E 22:33:46 27° S
ALOS 2 2.9 22:32:45 31° SE 22:34:42 60° ENE 22:39:02 10° N
Cosmos 1302 Rocket 3.9 22:31:55 25° SSW 22:35:00 82° ESE 22:40:13 10° NNE
Cosmos 2218 Rocket 4.0 22:35:47 10° N 22:42:14 89° W 22:45:53 28° S
Cosmos 2366 rocket 4.0 22:39:39 10° N 22:46:00 84° W 22:49:34 28° S
Cosmos 2082 Rocket 2.1 22:42:49 24° SSW 22:46:20 80° ESE 22:52:04 10° NNE
Cosmos 1602 Rocket 4.2 22:45:32 32° SE 22:46:52 42° E 22:50:57 10° NNE
RESURS DK-1 4.2 22:44:51 10° WNW 22:47:43 18° WSW 22:48:58 16° SW
H-2A R/B 3.5 22:45:32 10° NNE 22:49:44 68° ESE 22:51:09 39° S
Cosmos 2341 Rocket 4.4 22:44:12 10° NNW 22:50:24 57° W 22:54:07 24° SSW
Cosmos 2058 Rocket 3.8 22:49:01 10° NNW 22:53:13 45° W 22:55:04 28° SSW
Spot 4 4.1 22:52:43 32° SSW 22:54:46 58° W 22:59:31 10° NNW
Cosmos 1825 2.1 22:58:50 46° SSW 22:59:52 83° W 23:03:39 10° N
Cosmos 2360 Rocket 3.8 22:58:53 10° NNW 23:03:51 29° NE 23:08:45 10° ESE
Cosmos 968 Rocket 4.1 23:00:21 10° NW 23:05:15 43° WSW 23:07:22 29° SSW
ERS-2 2.5 23:01:51 10° NNE 23:05:19 46° E 23:05:53 42° SE
Cosmos-2242 3.3 23:02:33 10° N 23:06:45 58° ENE 23:08:16 36° SE
SL-8 R/B 4.3 23:06:32 10° W 23:10:55 36° SSW 23:11:22 35° SSW
Cosmos 1626 Rocket 3.6 23:10:22 36° SSW 23:12:02 72° W 23:16:23 10° N
Cosmos 1869 3.8 23:12:23 10° NNW 23:16:07 47° W 23:17:08 37° SW
Cosmos 1606 3.2 23:13:23 10° N 23:17:09 51° ENE 23:18:18 36° SE
Cosmos 2058 4.0 23:16:21 28° SE 23:17:33 34° E 23:21:22 10° NNE
BREEZE-M DEB (TANK) 4.0 23:14:10 10° WNW 23:17:41 89° SSW 23:32:31 10° ESE
Cosmos 1825 Rocket 4.1 23:22:58 33° SE 23:24:18 44° E 23:28:26 10° NNE
ADEOS Rocket 3.6 23:20:28 28° S 23:24:32 65° W 23:32:10 10° NNW
COSMOS 2406 4.2 23:19:58 10° SW 23:25:27 43° NW 23:30:58 10° NNE
Cosmos 1633 2.4 23:25:15 57° SSW 23:25:53 81° W 23:29:23 10° N
USA 267 3.9 23:21:10 10° NE 23:27:32 57° NNW 23:33:53 10° W
Okean 1-7 Rocket 4.5 23:27:28 25° SW 23:29:34 42° WNW 23:33:52 10° N
SL-16 R/B 2.3 23:24:05 10° NNW 23:29:48 78° ENE 23:33:07 26° SE
Meteor 2-20 4.4 23:32:16 30° SSW 23:35:29 84° W 23:41:37 10° N
Cosmos 1980 Rocket 3.4 23:31:30 10° NW 23:36:20 29° WSW 23:38:22 23° SW
SJ 16-02 1.6 23:32:49 10° NNW 23:37:15 66° ENE 23:39:13 32° SE
Cosmos 1486 Rocket 4.4 23:32:36 10° NNW 23:37:38 50° WSW 23:39:34 33° SSW
USA 276 2.2 23:37:18 10° WNW 23:40:19 67° N 23:43:18 10° E
Meteor 2-2 Rocket 4.5 23:36:30 10° N 23:42:31 72° ENE 23:45:55 27° SSE
Cosmos 1821 Rocket 4.1 23:36:33 10° NNW 23:42:46 65° W 23:45:54 30° SSW
Cosmos 2219 Rocket 4.1 23:39:23 10° NNW 23:44:12 28° NE 23:49:01 10° ESE
Cosmos 1340 Rocket 3.3 23:48:44 37° SE 23:49:45 46° E 23:53:33 10° NNE
CZ-2D R/B 4.2 23:47:27 10° NE 23:50:25 15° E 23:53:22 10° ESE
